Orbital Elements at Epoch 2459200.5 (2020-Dec-17.0) TDB
Reference: JPL 14 (heliocentric ecliptic J2000)
Element | Value | Uncertainty (1-sigma) | Units |
e | .1943918881432343 | 4.5434e-08 | |
a | 2.245405055256589 | 8.5659e-09 | au |
q | 1.808916526918898 | 1.0189e-07 | au |
i | 4.640349240141948 | 6.4666e-06 | deg |
node | 199.5384607108868 | 4.87e-05 | deg |
peri | 122.1030560305813 | 5.0871e-05 | deg |
M | 121.7641734848138 | 1.5257e-05 | deg |
tp | 2458784.821563955542 (2019-Oct-28.32156396) | 5.1225e-05 | TDB |
period | 1228.967706126368 3.36 | 7.0325e-06 1.925e-08 | d yr |
n | .2929287711999352 | 1.6762e-09 | deg/d |
Q | 2.681893583594281 | 1.0231e-08 | au |
|
| | Orbit Determination Parameters
Additional Information
|